Terminal Aerodrome Forecast
Issued by NWS Denver/Boulder, CO

Home | Current Version | Previous Version | Text Only | Print | Product List | Glossary On
Versions: 1 2 3 4 5 6 7 8 9 10 11 12 13 14 15 16 17 18 19 20 21 22 23 24 25 26 27 28 29 30 31 32 33 34 35 36 37 38 39 40 41 42 43 44 45 46 47 48 49 50
000
FTUS45 KBOU 170245 AAB
TAFDEN
TAF AMD
KDEN 170245Z 1703/1806 16011KT P6SM FEW080 SCT150
     FM170500 20009KT P6SM FEW150
     FM171400 25007KT P6SM FEW220
     FM171700 36007KT P6SM FEW220
     FM172200 08005KT P6SM SCT100
     FM180200 15007KT P6SM FEW120=

USA.gov is the U.S. government's official web portal to all federal, state and local government web resources and services.